User: anonymous   Login
Location: Copper Breaks State Park
(34.1132°N, 99.7492°W)
Time: 21:01:20
(UTC-05:00)
Language:

SL-16 R/B - Orbit

View from above orbital plane
View from above orbital plane
View from above satellite
View from above satellite

Ground track
Ground track

The orbit data is extracted from the following two-line orbital elements,

1 27006U 01056F   16182.90834446 -.00000043  00000-0 -30228-6 0  9993
2 27006  99.2612 329.8784 0015202 143.1899 328.2631 13.70969710728366
Epoch (UTC): 30 June 2016 21:48:00
Eccentricity: 0.0015202
inclination: 99.2612°
perigee height: 985 km
apogee height: 1007 km
right ascension of ascending node: 329.8784°
argument of perigee: 143.1899°
revolutions per day: 13.70969710
mean anomaly at epoch: 328.2631°
orbit number at epoch: 72836

The dashed part of the orbit path shows where the satellite is in the earth's shadow,  

DLR